Date String (YYYY-MM-DD hh:mm:ss) UTC,Instrument flags,Ambient pressure (hPa),Sample flow (lpm),Bypass flow (lpm),Sample temperature (°C),Ambient temperature (°C),ASC tube jacket temperature (°C),LED temperature (°C),Box temperature (°C),Sample RH (%),Span deviation,Mass concentration (μg/m³),Mass concentration (μg/m³),Mass concentration (μg/m³)
DateTimeUTC,F1_M11,P_M11,Q1_M11,Q2_M11,T1_M11,T2_M11,T3_M11,T4_M11,T5_M11,U1_M11,ZSPAN_M11,X0_M11,X2_M11,X1_M11
2022-07-29 05:00:00,,0830.5,5.00,0.00,30.9,28.8,00.0,39.5,32.1,34.7,0000.4,0011.36,0006.73,0006.37
2022-07-29 05:01:00,,0830.5,4.99,0.00,30.9,28.9,00.0,39.5,32.2,34.6,0000.8,0011.87,0006.74,0006.38
2022-07-29 05:02:00,,0830.5,5.00,0.00,30.9,29.0,00.0,39.5,32.2,34.8,0000.4,0011.90,0006.77,0006.38
2022-07-29 05:03:00,,0830.5,5.00,0.00,30.9,29.0,00.0,39.5,32.2,34.8,0000.2,0010.83,0006.81,0006.41
2022-07-29 05:04:00,,0830.5,5.00,0.00,30.8,29.0,00.0,39.5,32.2,34.8,-000.0,0010.49,0006.87,0006.44
2022-07-29 05:05:00,,0830.5,5.00,0.00,30.8,29.1,00.0,39.5,32.2,34.9,0000.3,0010.20,0006.88,0006.47
2022-07-29 05:06:00,,0830.5,5.00,0.00,30.8,28.9,00.0,39.4,32.2,34.9,0000.3,0010.15,0006.88,0006.48
2022-07-29 05:07:00,,0830.5,5.00,0.00,30.8,28.2,00.0,39.4,32.1,34.8,0000.2,0010.18,0006.88,0006.48
2022-07-29 05:08:00,,0830.5,4.99,0.00,30.7,27.8,00.0,39.4,32.0,34.9,-000.2,0010.14,0006.87,0006.48
2022-07-29 05:09:00,,0830.5,5.00,0.00,30.6,27.7,00.0,39.3,31.8,35.2,-000.2,0010.18,0006.85,0006.48
2022-07-29 05:10:00,,0830.5,5.01,0.00,30.7,27.8,00.0,39.3,32.0,35.0,-000.3,0010.18,0006.85,0006.48
2022-07-29 05:11:00,,0830.5,4.99,0.00,30.9,27.9,00.0,39.3,32.0,34.4,-000.3,0010.02,0006.84,0006.46
2022-07-29 05:12:00,,0830.5,5.00,0.00,31.0,28.0,00.0,39.2,32.0,34.1,-000.6,0009.36,0006.80,0006.43
2022-07-29 05:13:00,,0830.5,5.01,0.00,31.1,28.1,00.0,39.2,32.0,33.9,-000.8,0009.28,0006.77,0006.41
2022-07-29 05:14:00,,0830.5,4.99,0.00,31.1,28.2,00.0,39.3,32.0,33.9,-000.9,0009.19,0006.73,0006.38
2022-07-29 05:15:00,,0830.5,5.01,0.00,31.0,28.4,00.0,39.3,32.0,33.9,-001.1,0009.06,0006.66,0006.35
2022-07-29 05:16:00,,0830.5,5.00,0.00,31.0,28.5,00.0,39.3,32.0,33.9,-001.4,0009.28,0006.66,0006.34
2022-07-29 05:17:00,,0830.6,5.00,0.00,31.0,28.6,00.0,39.4,32.0,34.0,-001.3,0009.74,0006.66,0006.33
2022-07-29 05:18:00,,0830.6,5.00,0.00,31.0,28.6,00.0,39.4,32.1,34.1,-001.4,0009.72,0006.65,0006.32
2022-07-29 05:19:00,,0830.6,4.99,0.00,31.0,28.7,00.0,39.4,32.1,34.0,-001.1,0009.69,0006.65,0006.32
2022-07-29 05:20:00,,0830.6,4.99,0.00,31.0,28.8,00.0,39.4,32.1,34.0,-001.0,0009.66,0006.66,0006.32
2022-07-29 05:21:00,,0830.6,5.00,0.00,30.9,28.8,00.0,39.4,32.1,34.0,-001.4,0009.71,0006.70,0006.34
2022-07-29 05:22:00,,0830.6,5.00,0.00,30.9,28.9,00.0,39.4,32.1,34.0,-001.4,0009.79,0006.75,0006.37
2022-07-29 05:23:00,,0830.6,5.00,0.00,30.9,29.0,00.0,39.4,32.2,33.9,-001.2,0009.97,0006.79,0006.40
2022-07-29 05:24:00,,0830.5,5.00,0.00,30.9,29.0,00.0,39.5,32.2,33.9,-000.9,0010.25,0006.81,0006.44
2022-07-29 05:25:00,,0830.6,5.00,0.00,30.9,29.0,00.0,39.5,32.2,33.9,-000.7,0010.31,0006.86,0006.48
2022-07-29 05:26:00,,0830.5,5.00,0.00,30.9,29.1,00.0,39.5,32.2,33.9,-000.1,0010.33,0006.88,0006.49
2022-07-29 05:27:00,,0830.5,5.00,0.00,30.9,29.1,00.0,39.5,32.2,33.9,0000.2,0010.06,0006.88,0006.50
2022-07-29 05:28:00,,0830.5,5.00,0.00,30.9,29.1,00.0,39.5,32.2,33.8,0000.5,0009.67,0006.92,0006.52
2022-07-29 05:29:00,,0830.5,5.01,0.00,30.9,28.5,00.0,39.4,32.1,33.8,0001.5,0009.64,0006.92,0006.54
2022-07-29 05:30:00,,0830.6,4.98,0.00,30.8,27.9,00.0,39.4,32.0,33.9,0001.7,0009.62,0006.90,0006.53
2022-07-29 05:31:00,,0830.5,5.01,0.00,30.7,27.7,00.0,39.3,31.9,34.3,0000.2,0009.60,0006.89,0006.55
2022-07-29 05:32:00,,0830.5,5.01,0.00,30.6,27.7,00.0,39.3,31.8,34.5,0000.0,0009.57,0006.88,0006.55
2022-07-29 05:33:00,,0830.5,4.99,0.00,30.5,27.8,00.0,39.3,31.8,34.5,0000.6,0009.65,0006.86,0006.56
2022-07-29 05:34:00,,0830.5,5.01,0.00,30.5,27.9,00.0,39.2,31.8,34.6,0001.0,0009.64,0006.88,0006.58
2022-07-29 05:35:00,,0830.5,4.99,0.00,30.4,28.0,00.0,39.2,31.8,34.6,0000.2,0009.64,0006.88,0006.59
2022-07-29 05:36:00,,0830.5,4.99,0.00,30.4,28.2,00.0,39.2,31.9,34.6,0001.3,0010.18,0006.90,0006.60
2022-07-29 05:37:00,,0830.4,5.00,0.00,30.4,28.3,00.0,39.2,31.9,34.7,0001.2,0010.27,0006.95,0006.63
2022-07-29 05:38:00,,0830.4,5.00,0.00,30.4,28.4,00.0,39.2,31.9,34.8,0000.8,0010.41,0007.00,0006.67
2022-07-29 05:39:00,,0830.4,5.00,0.00,30.4,28.5,00.0,39.1,31.9,34.8,0000.0,0010.39,0007.00,0006.69
2022-07-29 05:40:00,,0830.4,5.01,0.00,30.4,28.6,00.0,39.1,32.0,34.9,-000.7,0010.46,0007.05,0006.73
2022-07-29 05:41:00,,0830.4,5.01,0.00,30.4,28.7,00.0,39.1,32.0,34.9,-000.5,0010.61,0007.12,0006.78
2022-07-29 05:42:00,,0830.4,5.00,0.00,30.4,28.7,00.0,39.1,32.0,34.9,-000.4,0010.92,0007.22,0006.82
2022-07-29 05:43:00,,0830.5,5.00,0.00,30.4,28.8,00.0,39.1,32.0,34.9,-000.6,0011.10,0007.28,0006.87
2022-07-29 05:44:00,,0830.5,5.00,0.00,30.4,28.8,00.0,39.1,32.0,34.9,-000.7,0011.07,0007.34,0006.91
2022-07-29 05:45:00,,0830.5,4.99,0.00,30.4,28.9,00.0,39.1,32.0,34.9,-000.6,0010.98,0007.37,0006.93
2022-07-29 05:46:00,,0830.4,5.00,0.00,30.4,28.9,00.0,39.1,32.1,34.8,-000.8,0010.68,0007.39,0006.96
2022-07-29 05:47:00,,0830.4,4.99,0.00,30.4,29.0,00.0,39.1,32.1,34.8,-000.9,0010.16,0007.40,0006.99
2022-07-29 05:48:00,,0830.4,5.00,0.00,30.4,29.0,00.0,39.1,32.1,35.0,-001.0,0010.18,0007.40,0007.00
2022-07-29 05:49:00,,0830.4,5.01,0.00,30.5,29.0,00.0,39.1,32.1,35.0,-000.7,0010.25,0007.44,0007.01
2022-07-29 05:50:00,,0830.4,4.99,0.00,30.6,29.1,00.0,39.1,32.3,34.4,-000.3,0010.35,0007.46,0007.01
2022-07-29 05:51:00,,0830.4,5.00,0.00,30.7,29.1,00.0,39.2,32.3,34.2,-000.2,0010.31,0007.44,0006.99
2022-07-29 05:52:00,,0830.5,4.99,0.00,30.8,29.1,00.0,39.2,32.3,34.0,-000.2,0010.15,0007.38,0006.95
2022-07-29 05:53:00,,0830.6,5.00,0.00,30.8,29.1,00.0,39.2,32.3,34.0,-000.6,0009.85,0007.30,0006.93
2022-07-29 05:54:00,,0830.5,5.00,0.00,30.8,28.6,00.0,39.2,32.1,33.9,-000.5,0009.68,0007.23,0006.89
2022-07-29 05:55:00,,0830.5,5.01,0.00,30.8,28.0,00.0,39.2,32.0,34.1,-000.0,0009.60,0007.22,0006.87
2022-07-29 05:56:00,,0830.5,5.01,0.00,30.7,27.7,00.0,39.2,31.9,34.2,0000.5,0009.61,0007.20,0006.86
2022-07-29 05:57:00,,0830.5,4.98,0.00,30.5,27.7,00.0,39.2,31.8,34.5,0000.9,0009.72,0007.23,0006.86
2022-07-29 05:58:00,,0830.5,5.01,0.00,30.5,27.8,00.0,39.1,31.8,34.6,0000.8,0009.74,0007.23,0006.85
2022-07-29 05:59:00,,0830.5,4.98,0.00,30.4,27.9,00.0,39.1,31.8,34.9,0001.0,0009.76,0007.25,0006.84
